Change the Weather History Date:

Tuesday, April 30, 2013

  Actual Average Record
Temperature  
Mean Temperature 72 °F -  
Max Temperature 82 °F 67 °F 82 °F (2013)
Min Temperature 62 °F 47 °F 32 °F (2005)
Cooling Degree Days 7    
Growing Degree Days 22 (Base 50)    
Moisture  
Dew Point 53 °F    
Average Humidity 52    
Maximum Humidity 72    
Minimum Humidity 39    
Precipitation  
Precipitation 0.00 in - - ()
Sea Level Pressure  
Sea Level Pressure 29.71 in    
Wind  
Wind Speed 23 mph (South)    
Max Wind Speed 30 mph    
Max Gust Speed 39 mph    
Visibility 10 miles    
Events      
Averages and records for this station are not official NWS values.
T = Trace of Precipitation, MM = Missing Value Source: NWS Daily Summary

Daily Weather History Graph

Daily Weather History Graph

Search for Another Location

Airport or City:

Trip Planner

Search our weather history database for the weather conditions in past years. The results will help you decide how hot, cold, wet, or windy it might be!

Date:

Astronomy

Apr. 30, 2013 Rise Set
Actual Time 6:33 AM CDT 8:19 PM CDT
Civil Twilight 6:05 AM CDT 8:47 PM CDT
Nautical Twilight 5:31 AM CDT 9:22 PM CDT
Astronomical Twilight 4:54 AM CDT 9:58 PM CDT
Moon 12:42 AM CDT (4/30) 11:04 AM CDT (4/30)
Length of Visible Light 14h 42m
Length of Day
13h 45m
Waning Gibbous, 70% of the Moon is Illuminated
Apr 30
Waning Gibbous
May 2
Last Quarter
May 9
New
May 17
First Quarter
May 24
Full

Hourly Weather History & Observations

Time (CDT) Temp. Heat Index Dew Point Humidity Pressure Visibility Wind Dir Wind Speed Gust Speed Precip Events Conditions
12:15 AM 71.6 °F - 48.2 °F 43% 29.67 in 10.0 mi South 27.6 mph 32.2 mph N/A   Clear
12:35 AM 71.6 °F - 48.2 °F 43% 29.67 in 10.0 mi South 25.3 mph 35.7 mph N/A   Clear
12:55 AM 69.8 °F - 48.2 °F 46% 29.68 in 10.0 mi SSW 27.6 mph 32.2 mph N/A   Clear
1:15 AM 69.8 °F - 48.2 °F 46% 29.68 in 10.0 mi South 23.0 mph 34.5 mph N/A   Clear
1:35 AM 69.8 °F - 46.4 °F 43% 29.69 in 10.0 mi SSW 21.9 mph 31.1 mph N/A   Clear
1:55 AM 68.0 °F - 46.4 °F 46% 29.69 in 10.0 mi SSW 23.0 mph 32.2 mph N/A   Clear
2:15 AM 68.0 °F - 46.4 °F 46% 29.69 in 10.0 mi SSW 21.9 mph 29.9 mph N/A   Clear
2:35 AM 66.2 °F - 46.4 °F 49% 29.69 in 10.0 mi SSW 24.2 mph 34.5 mph N/A   Clear
2:55 AM 66.2 °F - 46.4 °F 49% 29.69 in 10.0 mi SSW 24.2 mph 33.4 mph N/A   Clear
3:15 AM 66.2 °F - 46.4 °F 49% 29.69 in 10.0 mi South 21.9 mph 28.8 mph N/A   Clear
3:35 AM 66.2 °F - 48.2 °F 52% 29.69 in 10.0 mi South 26.5 mph 33.4 mph N/A   Clear
3:55 AM 64.4 °F - 48.2 °F 56% 29.69 in 10.0 mi South 23.0 mph 32.2 mph N/A   Clear
4:15 AM 64.4 °F - 48.2 °F 56% 29.70 in 10.0 mi South 23.0 mph 32.2 mph N/A   Clear
4:35 AM 64.4 °F - 48.2 °F 56% 29.70 in 10.0 mi SSW 21.9 mph 31.1 mph N/A   Clear
4:55 AM 64.4 °F - 50.0 °F 59% 29.70 in 10.0 mi South 19.6 mph 26.5 mph N/A   Clear
5:15 AM 64.4 °F - 50.0 °F 59% 29.70 in 10.0 mi South 21.9 mph 27.6 mph N/A   Clear
5:35 AM 62.6 °F - 50.0 °F 63% 29.70 in 10.0 mi South 18.4 mph - N/A   Clear
5:55 AM 62.6 °F - 51.8 °F 68% 29.70 in 10.0 mi South 20.7 mph 28.8 mph N/A   Clear
6:15 AM 62.6 °F - 51.8 °F 68% 29.71 in 10.0 mi South 19.6 mph 25.3 mph N/A   Clear
6:35 AM 62.6 °F - 51.8 °F 68% 29.71 in 10.0 mi South 21.9 mph 26.5 mph N/A   Clear
6:55 AM 62.6 °F - 51.8 °F 68% 29.72 in 10.0 mi South 23.0 mph 27.6 mph N/A   Clear
7:15 AM 62.6 °F - 53.6 °F 72% 29.72 in 10.0 mi South 23.0 mph 28.8 mph N/A   Clear
7:35 AM 64.4 °F - 53.6 °F 68% 29.72 in 10.0 mi South 23.0 mph 31.1 mph N/A   Clear
7:55 AM 64.4 °F - 53.6 °F 68% 29.72 in 10.0 mi South 24.2 mph 28.8 mph N/A   Clear
8:15 AM 66.2 °F - 53.6 °F 64% 29.71 in 10.0 mi South 28.8 mph 35.7 mph N/A   Clear
8:35 AM 66.2 °F - 53.6 °F 64% 29.71 in 10.0 mi South 24.2 mph 35.7 mph N/A   Clear
8:55 AM 68.0 °F - 53.6 °F 60% 29.71 in 10.0 mi South 25.3 mph 35.7 mph N/A   Clear
9:15 AM 69.8 °F - 55.4 °F 60% 29.71 in 10.0 mi South 25.3 mph 35.7 mph N/A   Clear
9:35 AM 71.6 °F - 55.4 °F 57% 29.70 in 10.0 mi South 28.8 mph 34.5 mph N/A   Clear
9:55 AM 71.6 °F - 55.4 °F 57% 29.70 in 10.0 mi South 25.3 mph 34.5 mph N/A   Clear
10:15 AM 73.4 °F - 55.4 °F 53% 29.70 in 10.0 mi South 26.5 mph 35.7 mph N/A   Clear
10:35 AM 73.4 °F - 55.4 °F 53% 29.70 in 10.0 mi South 26.5 mph 34.5 mph N/A   Clear
10:55 AM 75.2 °F - 55.4 °F 50% 29.70 in 10.0 mi South 27.6 mph 38.0 mph N/A   Clear
11:15 AM 75.2 °F - 55.4 °F 50% 29.70 in 10.0 mi South 29.9 mph 39.1 mph N/A   Clear
11:35 AM 75.2 °F - 55.4 °F 50% 29.71 in 10.0 mi South 28.8 mph 35.7 mph N/A   Clear
11:55 AM 77.0 °F - 55.4 °F 47% 29.71 in 10.0 mi South 25.3 mph 29.9 mph N/A   Clear
12:15 PM 78.8 °F - 57.2 °F 47% 29.70 in 10.0 mi SSW 24.2 mph 32.2 mph N/A   Clear
12:35 PM 78.8 °F - 57.2 °F 47% 29.70 in 10.0 mi South 27.6 mph 33.4 mph N/A   Clear
12:55 PM 80.6 °F 80.8 °F 57.2 °F 45% 29.69 in 10.0 mi SSW 27.6 mph 35.7 mph N/A   Clear
1:15 PM 80.6 °F 80.8 °F 57.2 °F 45% 29.69 in 10.0 mi South 28.8 mph 33.4 mph N/A   Clear
1:35 PM 80.6 °F 80.8 °F 57.2 °F 45% 29.69 in 10.0 mi South 26.5 mph 35.7 mph N/A   Clear
1:55 PM 82.4 °F 82.0 °F 57.2 °F 42% 29.69 in 10.0 mi South 27.6 mph 33.4 mph N/A   Clear
2:15 PM 82.4 °F 82.0 °F 57.2 °F 42% 29.69 in 10.0 mi SSW 26.5 mph 33.4 mph N/A   Clear
2:35 PM 82.4 °F 82.0 °F 57.2 °F 42% 29.69 in 10.0 mi SSW 23.0 mph 32.2 mph N/A   Clear
2:55 PM 82.4 °F 82.0 °F 57.2 °F 42% 29.70 in 10.0 mi South 23.0 mph 35.7 mph N/A   Clear
3:15 PM 82.4 °F 82.0 °F 57.2 °F 42% 29.70 in 10.0 mi South 24.2 mph 31.1 mph N/A   Clear
3:35 PM 82.4 °F 82.5 °F 59.0 °F 45% 29.70 in 10.0 mi South 24.2 mph 31.1 mph N/A   Clear
3:55 PM 82.4 °F 82.0 °F 57.2 °F 42% 29.70 in 10.0 mi South 25.3 mph 35.7 mph N/A   Clear
4:15 PM 82.4 °F 82.0 °F 57.2 °F 42% 29.70 in 10.0 mi South 23.0 mph 33.4 mph N/A   Clear
4:35 PM 82.4 °F 82.0 °F 57.2 °F 42% 29.69 in 10.0 mi South 24.2 mph 29.9 mph N/A   Clear
4:55 PM 82.4 °F 81.7 °F 55.4 °F 39% 29.70 in 10.0 mi South 24.2 mph 31.1 mph N/A   Clear
5:15 PM 82.4 °F 81.7 °F 55.4 °F 39% 29.70 in 10.0 mi South 23.0 mph 29.9 mph N/A   Clear
5:35 PM 82.4 °F 81.7 °F 55.4 °F 39% 29.70 in 10.0 mi South 24.2 mph 31.1 mph N/A   Clear
5:55 PM 80.6 °F 80.3 °F 53.6 °F 39% 29.70 in 10.0 mi South 21.9 mph 28.8 mph N/A   Clear
6:15 PM 80.6 °F 80.3 °F 53.6 °F 39% 29.70 in 10.0 mi South 17.3 mph 28.8 mph N/A   Clear
6:35 PM 80.6 °F 80.3 °F 53.6 °F 39% 29.71 in 10.0 mi SSE 20.7 mph 25.3 mph N/A   Clear
6:55 PM 78.8 °F - 53.6 °F 42% 29.71 in 10.0 mi South 17.3 mph 24.2 mph N/A   Clear
7:15 PM 78.8 °F - 53.6 °F 42% 29.72 in 10.0 mi South 13.8 mph 19.6 mph N/A   Clear
7:35 PM 77.0 °F - 53.6 °F 44% 29.72 in 10.0 mi South 16.1 mph 19.6 mph N/A   Clear
7:55 PM 75.2 °F - 53.6 °F 47% 29.73 in 10.0 mi SSE 11.5 mph - N/A   Clear
8:15 PM 73.4 °F - 53.6 °F 50% 29.73 in 10.0 mi SSE 11.5 mph - N/A   Clear
8:35 PM 71.6 °F - 53.6 °F 53% 29.74 in 10.0 mi SSE 10.4 mph - N/A   Clear
9:15 PM 66.2 °F - 53.6 °F 64% 29.76 in 10.0 mi SSE 10.4 mph - N/A   Clear
9:35 PM 64.4 °F - 51.8 °F 64% 29.76 in 10.0 mi SE 6.9 mph - N/A   Clear
9:55 PM 62.6 °F - 51.8 °F 68% 29.78 in 10.0 mi SE 9.2 mph - N/A   Clear
10:15 PM 64.4 °F - 51.8 °F 64% 29.79 in 10.0 mi SSE 10.4 mph - N/A   Clear
10:35 PM 64.4 °F - 51.8 °F 64% 29.79 in 10.0 mi SSE 10.4 mph - N/A   Clear
10:55 PM 64.4 °F - 50.0 °F 59% 29.79 in 10.0 mi SSE 12.7 mph - N/A   Clear
11:15 PM 66.2 °F - 50.0 °F 56% 29.79 in 10.0 mi SSE 12.7 mph - N/A   Clear
11:35 PM 64.4 °F - 48.2 °F 56% 29.79 in 10.0 mi SSE 11.5 mph - N/A   Clear